[[{"header":{"parameterUnit":"m.s-1","parameterCategory":1,"la1":30.2991,"la2":30.254,"lo1":-89.0895,"lo2":-89.0444,"dy":0.0017,"dx":0.0017,"nx":28,"ny":28,"refTime":"2023-03-31T21:00:00:Z","depth":0,"parameterNumber":2,"parameterNumberName":"U-component_of_WINDS"},"data":[0,0,0,0,0,0,0,0,0,0,0,0,0,0,0,0,0,0,0,0,0,0,0,0,0,0,0,0,0,0,0,0,0,0,0,0,0,0,0,0,0,0,0,0,0,0,0,0,0,0,0,0,0,0,0,0,0,0,-3.7006,-3.7006,0,-3.6957,-3.6957,-3.6956,-3.6824,-3.6821,-3.6818,-3.6816,-3.6767,-3.6769,-3.677,0,0,0,0,0,0,0,0,0,0,0,0,0,-3.699,-3.6991,-3.7007,-3.7006,-3.7005,-3.6957,-3.6957,-3.6956,-3.6825,-3.6821,-3.6818,-3.6815,-3.6767,-3.6768,-3.677,0,0,0,0,0,0,0,0,0,0,0,0,0,-3.6975,-3.6992,-3.7007,-3.6934,-3.6927,-3.6957,-3.6957,-3.6956,-3.6825,-3.6821,-3.6817,-3.6813,-3.6766,-3.6768,-3.677,-3.6868,0,0,-3.6776,-3.6777,0,0,0,0,0,0,0,0,-3.6976,-3.6976,-3.6945,-3.6939,-3.6931,-3.6892,-3.6933,-3.6926,-3.6826,-3.6864,-3.6816,-3.6811,-3.6812,-3.681,-3.6811,-3.6865,-3.6863,-3.6777,-3.6778,-3.6779,-3.6779,0,0,0,0,0,0,0,-3.6977,-3.6977,-3.6987,-3.6945,-3.6936,-3.6905,-3.6898,-3.6931,-3.6863,-3.686,-3.6851,-3.6847,-3.6808,-3.6809,-3.6808,-3.6863,-3.6777,-3.6778,-3.678,-3.678,-3.6997,-3.7002,0,0,0,0,0,0,-3.6989,-3.6979,-3.6988,-3.6985,-3.6944,-3.6909,-3.6901,-3.6909,-3.6862,-3.6851,-3.685,-3.6841,-3.6808,-3.6806,-3.6806,-3.6918,-3.6779,-3.6781,-3.6782,-3.6993,-3.6998,-3.7003,0,0,0,0,0,0,-3.6989,-3.6991,-3.699,-3.698,-3.6977,-3.6914,-3.6924,-3.691,-3.6911,-3.6854,-3.6842,-3.6864,-3.6804,-3.6803,-3.6854,-3.6914,-3.6781,-3.6783,-3.6987,-3.6994,-3.7001,-3.7142,0,0,0,0,0,0,-3.6989,-3.6991,-3.7027,-3.6981,-3.6978,-3.7038,-3.6927,-3.6913,-3.6915,-3.6902,-3.6864,-3.6853,-3.6801,-3.6851,-3.6856,-3.6914,-3.6785,-3.6982,-3.6991,-3.6999,-3.7131,-3.7152,-3.717,0,0,0,0,0,-3.6989,-3.7068,-3.7029,-3.7031,-3.7021,-3.7042,-3.704,-3.6977,-3.692,-3.6956,-3.692,-3.6854,-3.6908,-3.6858,-3.6861,-3.6922,-3.6977,-3.6988,-3.6998,-3.7122,-3.7148,-3.717,0,0,0,0,0,0,-3.7122,-3.7061,-3.7017,-3.7084,-3.7069,-3.7019,-3.7062,-3.7007,-3.7008,-3.6996,-3.6919,-3.6912,-3.6973,-3.6952,-3.6898,-3.7015,-3.6932,-3.6943,-3.7025,-3.7049,-3.7069,-3.7072,-3.6787,0,0,0,0,0,-3.716,-3.7181,-3.7126,-3.7191,-3.7186,-3.7126,-3.7133,-3.7086,-3.7068,-3.7061,-3.7028,-3.7014,-3.7027,-3.7037,-3.7046,-3.7129,-3.7119,-3.7172,-3.7192,-3.7208,-3.7219,-3.7262,-3.7285,-3.7037,-3.7037,-3.7037,0,0,-3.7236,-3.7206,-3.7223,-3.7217,-3.72,-3.7225,-3.7121,-3.7151,-3.7169,-3.7065,-3.711,-3.7087,-3.7066,-3.7133,-3.7161,-3.7118,-3.7286,-3.7221,-3.7235,-3.7236,-3.7275,-3.7298,-3.7319,-3.7044,-3.7042,-3.7041,0,0,-3.7389,-3.7368,-3.742,-3.7405,-3.7381,-3.7341,-3.7355,-3.7314,-3.7294,-3.7338,-3.7262,-3.7283,-3.7307,-3.7296,-3.7293,-3.7446,-3.7386,-3.7452,-3.7553,-3.7596,-3.7616,-3.7633,-3.7687,-3.7708,-3.7462,-3.7463,-3.7463,0,-3.7487,-3.752,-3.7453,-3.7489,-3.7489,-3.7397,-3.745,-3.744,-3.7421,-3.7423,-3.7376,-3.7406,-3.7385,-3.7449,-3.7487,-3.7488,-3.7501,-3.7454,-3.7618,-3.7635,-3.765,-3.7701,-3.7722,-3.7471,-3.747,-3.7469,-3.7468,0,-3.7643,-3.7668,-3.7713,-3.7697,-3.7702,-3.7747,-3.7688,-3.7702,-3.7656,-3.7622,-3.767,-3.7643,-3.7645,-3.7657,-3.7613,-3.7716,-3.769,-3.7632,-3.7547,-3.7682,-3.7729,-3.7748,-3.7482,-3.7479,-3.7477,-3.7475,0,0,-3.7875,-3.7823,-3.7841,-3.7833,-3.7802,-3.782,-3.7862,-3.7864,-3.7878,-3.7869,-3.7902,-3.7927,-3.7874,-3.7871,-3.7825,-3.7863,-3.7987,-3.78,-3.7799,-3.7835,-3.8099,-3.8142,-3.8166,-3.7948,-3.7952,-3.7954,-3.8101,0,-3.8018,-3.8084,-3.8027,-3.8105,-3.8128,-3.8043,-3.8079,-3.8065,-3.8035,-3.8051,-3.8019,-3.8037,-3.7966,-3.7964,-3.7998,-3.7965,-3.8038,-3.7953,-3.7978,-3.798,-3.7985,-3.819,-3.8235,-3.8374,-3.8119,-3.8122,-3.8124,0,-3.8193,-3.8193,-3.8273,-3.8238,-3.8246,-3.8279,-3.8278,-3.8294,-3.8277,-3.8253,-3.8253,-3.8197,-3.8237,-3.8156,-3.821,-3.8153,-3.8161,-3.8147,-3.8151,-3.8149,-3.8059,-3.8193,-3.8417,-3.8438,-3.8152,-3.815,-3.8148,0,-3.8354,-3.8374,-3.8424,-3.842,-3.8381,-3.8407,-3.8392,-3.8371,-3.8377,-3.8377,-3.8381,-3.8386,-3.8388,-3.8394,-3.8342,-3.8288,-3.8404,-3.8318,-3.8385,-3.8387,-3.8411,-3.841,-3.8638,-3.8419,-3.8419,-3.8419,-3.8418,0,-3.8519,-3.8571,-3.8496,-3.8527,-3.8584,-3.8519,-3.8578,-3.8554,-3.8537,-3.8563,-3.8491,-3.8517,-3.8447,-3.8467,-3.8427,-3.8479,-3.8481,-3.8463,-3.8451,-3.8468,-3.8471,-3.8471,-3.8459,-3.8424,-3.8423,-3.8422,-3.8421,0,-3.8707,-3.8658,-3.8708,-3.8668,-3.8659,-3.8703,-3.8669,-3.8697,-3.8664,-3.8698,-3.8703,-3.8651,-3.8671,-3.862,-3.8632,-3.8606,-3.868,-3.8653,-3.8685,-3.8677,-3.8747,-3.8741,-3.8982,-3.901,-3.8774,-3.8777,-3.8779,0,-3.8814,-3.8852,-3.8817,-3.883,-3.8819,-3.884,-3.8846,-3.8785,-3.8795,-3.878,-3.881,-3.8824,-3.8831,-3.8867,-3.8831,-3.8841,-3.8813,-3.8897,-3.8814,-3.8831,-3.8814,-3.8812,-3.8815,-3.8914,-3.8917,-3.8919,-3.8921,0,-3.9011,-3.8985,-3.8997,-3.9001,-3.9011,-3.9011,-3.9006,-3.9021,-3.8956,-3.8971,-3.899,-3.8996,-3.901,-3.9024,-3.9027,-3.9012,-3.8957,-3.8948,-3.8964,-3.8981,-3.8998,-3.8989,-3.8731,-3.8942,-3.894,-3.8939,-3.8937,-3.8937,-3.916,-3.9191,-3.9172,-3.9188,-3.9178,-3.9176,-3.9201,-3.9172,-3.9187,-3.9192,-3.9156,-3.9184,-3.9169,-3.9165,-3.9158,-3.9179,-3.9141,-3.9164,-3.917,-3.9176,-3.9187,-3.8996,-3.9179,-3.9179,-3.9178,-3.9178,-3.9177,0,-3.9352,-3.9337,-3.9352,-3.9348,-3.9362,-3.9309,-3.9302,-3.9317,-3.9342,-3.9332,-3.9342,-3.9365,-3.938,-3.9347,-3.9357,-3.9381,-3.9356,-3.9385,-3.9382,-3.938,-3.9221,-3.9206,-3.9406,-3.9406,-3.9406,-3.9406,-3.9406,-3.9405,-3.9454,-3.9503,-3.9477,-3.9522,-3.9505,-3.9531,-3.9532,-3.9531,-3.9523,-3.9552,-3.9564,-3.9543,-3.9524,-3.9533,-3.9545,-3.9535,-3.9542,-3.9581,-3.9562,-3.9413,-3.9391,-3.937,-3.9355,-3.9583,-3.9583,-3.9719,-3.972,-3.9721]},{"header":{"parameterUnit":"m.s-1","parameterCategory":1,"la1":30.2991,"la2":30.254,"lo1":-89.0895,"lo2":-89.0444,"dy":0.0017,"dx":0.0017,"nx":28,"ny":28,"refTime":"2023-03-31T21:00:00:Z","depth":0,"parameterNumber":3,"parameterNumberName":"V-component_of_WINDS"},"data":[0,0,0,0,0,0,0,0,0,0,0,0,0,0,0,0,0,0,0,0,0,0,0,0,0,0,0,0,0,0,0,0,0,0,0,0,0,0,0,0,0,0,0,0,0,0,0,0,0,0,0,0,0,0,0,0,0,0,2.4495,2.4496,0,2.4517,2.4517,2.4517,2.4564,2.4565,2.4566,2.4567,2.4583,2.4582,2.4582,0,0,0,0,0,0,0,0,0,0,0,0,0,2.4492,2.4492,2.4495,2.4496,2.4496,2.4516,2.4517,2.4517,2.4564,2.4565,2.4567,2.4568,2.4583,2.4582,2.4582,0,0,0,0,0,0,0,0,0,0,0,0,0,2.4501,2.4492,2.4495,2.4522,2.4525,2.4516,2.4517,2.4517,2.4564,2.4565,2.4567,2.4568,2.4583,2.4583,2.4582,2.4547,0,0,2.4579,2.4579,0,0,0,0,0,0,0,0,2.45,2.4501,2.4518,2.452,2.4523,2.454,2.4521,2.4527,2.4564,2.4549,2.4567,2.4569,2.4567,2.4568,2.4568,2.4548,2.4549,2.4579,2.4579,2.4579,2.4578,0,0,0,0,0,0,0,2.45,2.45,2.4504,2.4518,2.4521,2.4532,2.4535,2.4523,2.4549,2.455,2.4554,2.4556,2.4569,2.4569,2.4569,2.4549,2.4579,2.4579,2.4578,2.4578,2.4503,2.4501,0,0,0,0,0,0,2.4496,2.45,2.4503,2.4504,2.4515,2.4531,2.4534,2.4533,2.4549,2.4553,2.4555,2.4558,2.4569,2.457,2.4569,2.4531,2.4579,2.4578,2.4577,2.4504,2.4503,2.4501,0,0,0,0,0,0,2.4496,2.4496,2.4502,2.4503,2.4505,2.4529,2.4527,2.4532,2.4533,2.4553,2.4557,2.455,2.457,2.4571,2.4553,2.4532,2.4578,2.4577,2.4506,2.4504,2.4502,2.4453,0,0,0,0,0,0,2.4495,2.4495,2.4483,2.4502,2.4504,2.4486,2.4526,2.4532,2.4532,2.4536,2.455,2.4553,2.4572,2.4554,2.4552,2.4532,2.4576,2.4508,2.4505,2.4502,2.4457,2.4449,2.4443,0,0,0,0,0,2.4495,2.4467,2.4483,2.4483,2.449,2.4485,2.4486,2.4509,2.453,2.4518,2.4531,2.4553,2.4535,2.4552,2.455,2.4529,2.451,2.4506,2.4503,2.446,2.4451,2.4443,0,0,0,0,0,0,2.4442,2.447,2.4487,2.4465,2.4473,2.4493,2.4478,2.4499,2.4499,2.4504,2.4531,2.4533,2.4512,2.4519,2.4537,2.4498,2.4526,2.4522,2.4494,2.4486,2.4479,2.4477,2.4576,0,0,0,0,0,2.4429,2.4424,2.4448,2.4426,2.4429,2.4453,2.4452,2.4469,2.4477,2.448,2.4492,2.4498,2.4494,2.449,2.4487,2.4458,2.4462,2.4443,2.4436,2.4431,2.4427,2.4413,2.4405,2.449,2.449,2.449,0,0,2.4399,2.4414,2.4409,2.4416,2.4424,2.4417,2.4455,2.4446,2.4441,2.4478,2.4463,2.4472,2.448,2.4458,2.4448,2.4462,2.4405,2.4426,2.4422,2.4421,2.4409,2.44,2.4393,2.4487,2.4488,2.4488,0,0,2.4343,2.4354,2.4337,2.4345,2.4358,2.4374,2.437,2.4388,2.4396,2.4382,2.441,2.4404,2.4396,2.4401,2.4403,2.435,2.4371,2.4348,2.4313,2.4299,2.4292,2.4286,2.4268,2.4261,2.4344,2.4344,2.4344,0,2.4304,2.4297,2.4325,2.4316,2.4318,2.4354,2.4337,2.4343,2.4352,2.4352,2.4369,2.4362,2.4369,2.4349,2.4336,2.4336,2.4332,2.4346,2.4291,2.4286,2.4281,2.4263,2.4256,2.4342,2.4342,2.4342,2.4342,0,2.4249,2.4244,2.4229,2.4241,2.4241,2.4227,2.4253,2.425,2.4268,2.4282,2.4267,2.4279,2.4279,2.4276,2.4292,2.4257,2.4266,2.4287,2.4316,2.427,2.4254,2.4247,2.4338,2.4339,2.4339,2.434,0,0,2.4158,2.4188,2.4182,2.4188,2.4206,2.4201,2.419,2.4193,2.419,2.4195,2.4186,2.4179,2.4199,2.4201,2.4218,2.4206,2.4165,2.4228,2.4229,2.4216,2.4127,2.4112,2.4104,2.4179,2.4178,2.4177,2.4127,0,2.4106,2.4089,2.4115,2.4092,2.4087,2.4122,2.4112,2.4121,2.4134,2.4131,2.4145,2.4141,2.4167,2.4169,2.4158,2.4172,2.4147,2.4176,2.4169,2.4168,2.4166,2.4095,2.4078,2.4031,2.4121,2.412,2.4119,0,2.4041,2.4047,2.4024,2.4045,2.4044,2.4034,2.404,2.4037,2.4048,2.4059,2.4062,2.4084,2.4072,2.4101,2.4086,2.4105,2.4104,2.411,2.4109,2.4109,2.414,2.4093,2.4016,2.4009,2.4109,2.411,2.4111,0,2.3978,2.398,2.3967,2.3971,2.3995,2.3987,2.3996,2.4009,2.401,2.4014,2.4015,2.4017,2.4017,2.4018,2.404,2.4059,2.4022,2.4052,2.4029,2.4029,2.4019,2.4019,2.3941,2.4019,2.4019,2.4019,2.4019,0,2.3916,2.3901,2.3939,2.3931,2.3914,2.3944,2.3927,2.3939,2.395,2.3945,2.3974,2.3968,2.3997,2.3993,2.401,2.3995,2.3995,2.4002,2.4007,2.3999,2.3998,2.3998,2.4002,2.4017,2.4018,2.4018,2.4018,0,2.3842,2.3867,2.3855,2.388,2.3885,2.3872,2.3892,2.3885,2.3902,2.3894,2.3893,2.3918,2.3916,2.3938,2.3938,2.395,2.3927,2.3937,2.3923,2.3927,2.3903,2.3904,2.3821,2.3812,2.3895,2.3895,2.3894,0,2.3801,2.379,2.3814,2.3814,2.3822,2.382,2.3822,2.3851,2.3851,2.3864,2.3855,2.3855,2.3857,2.3851,2.3868,2.3869,2.3879,2.385,2.3879,2.3873,2.3879,2.3879,2.3878,2.3844,2.3843,2.3842,2.3841,0,2.3725,2.3739,2.3741,2.3748,2.375,2.3756,2.3764,2.3761,2.3793,2.3791,2.379,2.3792,2.3794,2.3794,2.3799,2.3807,2.3829,2.3832,2.3827,2.3819,2.3812,2.3816,2.3906,2.3833,2.3834,2.3835,2.3835,2.3835,2.3666,2.3659,2.3676,2.3677,2.3687,2.3694,2.3689,2.3706,2.3707,2.3712,2.3729,2.3725,2.3737,2.3746,2.3752,2.3749,2.3763,2.3755,2.3753,2.3751,2.3747,2.3813,2.375,2.375,2.375,2.375,2.3751,0,2.3592,2.3605,2.3607,2.3619,2.362,2.3643,2.3654,2.3653,2.365,2.366,2.3662,2.3661,2.3662,2.368,2.3682,2.3676,2.3686,2.3676,2.3676,2.3678,2.3734,2.3738,2.3668,2.3668,2.3668,2.3668,2.3668,2.3668,2.3554,2.3543,2.3559,2.3553,2.3566,2.3564,2.3568,2.3575,2.3584,2.3582,2.3584,2.3596,2.361,2.3614,2.3615,2.362,2.3619,2.3605,2.3614,2.3666,2.3674,2.3681,2.3686,2.3605,2.3605,2.3558,2.3558,2.3557]}]]